Hourly Data Report for July 04, 2022

QUALICUM BEACH AIRPORT
BRITISH COLUMBIA
Current Station Operator: ECCC - MSC

49°20'14.000" N
124°23'38.000" W
58.20 m
1026562
71766
VOQ

Download Data

Hourly Data (July 2022)
Hourly Data Report for July 4, 2022
TIME
LST
Temp Definition
°C
Dew Point Definition
°C
Rel Hum Definition
%
Precip. Amount Definition
mm

Wind Dir Definition
10's deg

Wind Spd Definition
km/h
Visibility Definition
km
Stn Press Definition
kPa
Hmdx Definition


Wind Chill Definition


Weather Definition


00:00 13.3 13.0 98 0.0 11 5   100.58     LegendNANA
01:00 13.4 13.1 98 0.2 13 4   100.55     LegendNANA
02:00 13.4 13.2 98 0.4 11 3   100.55     LegendNANA
03:00 13.4 13.2 99 0.6 14 5   100.55     LegendNANA
04:00 13.4 13.2 98 0.9 13 4   100.55     LegendNANA
05:00 13.3 13.1 98 0.9 12 5   100.56     LegendNANA
06:00 13.3 12.9 97 0.9 12 7   100.56     LegendNANA
07:00 13.3 12.9 97 0.3 12 7   100.57     LegendNANA
08:00 13.5 13.1 98 0.7 10 9   100.61     LegendNANA
09:00 13.5 13.1 98 1.2 11 8   100.64     LegendNANA
10:00 13.3 12.9 98 1.6 11 11   100.67     LegendNANA
11:00 13.5 13.1 97 2.1 10 9   100.69     LegendNANA
12:00 13.8 13.3 96 1.4 10 10   100.72     LegendNANA
13:00 13.7 13.1 96 1.0 10 10   100.77     LegendNANA
14:00 13.7 13.3 97 2.4 9 6   100.80     LegendNANA
15:00 14.1 13.6 97 1.2 8 3   100.82     LegendNANA
16:00 14.9 14.1 95 1.0 8 3   100.84     LegendNANA
17:00 14.8 14.1 95 0.3 10 5   100.85     LegendNANA
18:00 15.1 14.5 96 0.3 13 4   100.82     LegendNANA
19:00 14.8 14.2 96 0.0 7 4   100.83     LegendNANA
20:00 14.2 13.9 98 0.0 13 3   100.84     LegendNANA
21:00 14.4 14.1 98 0.0 24 4   100.86     LegendNANA
22:00 13.7 12.9 95 0.0 25 1   100.85     LegendNANA
23:00 13.5 13.0 97 0.0 24 4   100.85     LegendNANA

Notes on Data Quality.

Legend

  • E = Estimated
  • M = Missing
  • NA = Not Available*
  • [empty] = Indicates an unobserved value
Date modified: